Location: Eppenbrunn
(49.1158°N, 7.5601°E)
Time: 14:35:31
(UTC+00:00)

IGS 5A - Pass Details

Date: 24 June 2021
Orbit: 583 x 587 km, 97.6° (Epoch: 17 July)

Event Time Altitude Azimuth Distance (km) Brightness Sun altitude
Exits shadow 20:29:17 - 183° (S) 2,849 6.5 -6.8°
Rises 20:29:24 0° 183° (S) 2,805 6.5 -6.8°
Reaches altitude 10° 20:31:38 10° 190° (S) 1,910 5.7 -7.1°
Maximum altitude 20:35:34 42° 262° (W) 851 4.6 -7.5°
Drops below altitude 10° 20:39:33 10° 334° (NNW) 1,925 7.6 -7.9°
Sets 20:41:49 0° 341° (NNW) 2,831 8.5 -8.2°
